Home   Weather   Mönchengladbach   Past weeks
Flag for Germany

Past Weather in Mönchengladbach, North Rhine-Westphalia, Germany — Yesterday and Last 2 Weeks

Now
50 °F

Sunny.


Feels Like: 47 °F
Forecast: 69 / 45 °F
Wind: 7 mph from Southeast

Location: Monchengladbach Airport

Current Time: Apr 5, 2020 at 10:00:28 am

Latest Report: Apr 5, 2020 at 9:20 am


Visibility: 10 mi

Pressure: 30.24 "Hg

Humidity: 58%

Dew Point: 36 °F

Location of MönchengladbachLocation

Past Weather in Mönchengladbach — Graph

°F

Mönchengladbach Temperature Yesterday

Maximum temperature yesterday: 59 °F (at 4:50 pm)
Minimum temperature yesterday: 28 °F (at 4:50 am)
Average temperature yesterday: 43 °F

High & Low Weather Summary for the Past Weeks

 TemperatureHumidityPressure
High61 °F (Mar 27, 3:50 pm)93% (Mar 30, 7:20 am)30.51 "Hg (Mar 30, 7:20 am)
Low23 °F (Mar 30, 7:20 am)22% (Mar 24, 2:50 pm)29.86 "Hg (Apr 3, 1:20 am)
Average42 °F56%30.26 "Hg
* Reported Mar 21 7:20 am — Apr 5 8:20 am, Mönchengladbach. Weather by CustomWeather, © 2020

Note: Actual official high and low records may vary slightly from our data, if they occured in-between our weather recording intervals... More about our weather records

Mönchengladbach Weather History for the Previous 24 Hours

Scroll right to see more
 ConditionsComfort  
Time TempWeatherWind HumidityBarometerVisibility
8:20 am
Sun, Apr 5
45 °FSunny.7 mph66%30.24 "Hg10 mi
7:50 am39 °FSunny.6 mph75%30.21 "Hg10 mi
7:20 am37 °FSunny.7 mph81%30.21 "HgN/A
6:50 am37 °FSunny.8 mph81%30.21 "HgN/A
6:20 am36 °FSunny.8 mph81%30.21 "HgN/A
5:50 am37 °FSunny.7 mph81%30.21 "HgN/A
5:20 am37 °FSunny.7 mph81%30.21 "HgN/A
4:20 am37 °FSunny.5 mph81%30.21 "HgN/A
3:50 am39 °FSunny.3 mph75%30.21 "HgN/A
3:20 am39 °FSunny.5 mph75%30.21 "HgN/A
2:50 am39 °FSunny.5 mph75%30.21 "HgN/A
2:20 am41 °FSunny.3 mph70%30.24 "HgN/A
1:50 am39 °FSunny.5 mph75%30.24 "HgN/A
1:20 am41 °FSunny.5 mph70%30.24 "HgN/A
12:50 am41 °FSunny.5 mph70%30.24 "HgN/A
12:20 am39 °FSunny.3 mph75%30.24 "HgN/A
11:50 pm
Sat, Apr 4
39 °FSunny.3 mph81%30.24 "HgN/A
11:20 pm41 °FSunny.3 mph70%30.21 "HgN/A
10:50 pm41 °FSunny.3 mph70%30.21 "HgN/A
10:20 pm46 °FSunny.3 mph57%30.21 "HgN/A
9:20 pm45 °FClear.5 mph53%30.21 "HgN/A
8:20 pm52 °FClear.3 mph41%30.21 "Hg10 mi
7:50 pm55 °FClear.3 mph36%30.21 "Hg10 mi
7:20 pm57 °FPassing clouds.5 mph33%30.21 "HgN/A
6:50 pm57 °FPassing clouds.3 mph36%30.21 "HgN/A
6:20 pm57 °FPassing clouds.7 mph36%30.21 "HgN/A
5:50 pm57 °FPassing clouds.7 mph31%30.21 "HgN/A
5:20 pm59 °FPassing clouds.5 mph31%30.21 "HgN/A
4:50 pm59 °FPassing clouds.6 mph31%30.21 "HgN/A
4:20 pm57 °FPassing clouds.7 mph33%30.21 "HgN/A
3:50 pm55 °FPassing clouds.7 mph33%30.24 "HgN/A
3:20 pm55 °FPassing clouds.6 mph36%30.24 "HgN/A
2:50 pm54 °FPassing clouds.8 mph38%30.24 "HgN/A
2:20 pm54 °FPassing clouds.8 mph38%30.24 "HgN/A
1:50 pm54 °FPassing clouds.6 mph38%30.27 "HgN/A
1:20 pm54 °FPassing clouds.8 mph35%30.27 "HgN/A
12:50 pm52 °FPassing clouds.9 mph41%30.27 "HgN/A
12:20 pm52 °FPassing clouds.7 mph44%30.27 "HgN/A
11:50 am50 °FPassing clouds.7 mph47%30.27 "HgN/A
11:20 am48 °FPassing clouds.7 mph50%30.27 "HgN/A
10:50 am48 °FPassing clouds.8 mph54%30.27 "HgN/A
10:20 am45 °FPassing clouds.6 mph61%30.27 "HgN/A
Weather by CustomWeather, © 2020

See weather overview

Advertising